{"data":{"norad_id":61932,"intl_designator":"2024-207W","name":"STARLINK-32354","alt_names":[],"object_type":"PAYLOAD","status":"ACTIVE","operator":null,"country":"US","launch_date":"2024-11-11","launch_site_code":"AFETR","launch_vehicle":null,"mission":null,"orbit_class":"UNKNOWN","rcs_meters":null,"size_class":null,"mass_kg":null,"dimensions":null,"purposes":["comms"],"wikipedia_slug":null,"has_3d_model":false,"image_url":null,"decayed_at":null,"tle_current":{"epoch":"2026-05-25T05:25:45.056352Z","epoch_age_seconds":49421,"freshness":"FRESH","line1":"1 61932U 24207W   26145.22621593  .00014470  00000+0  53418-3 0  9993","line2":"2 61932  42.9995 213.2788 0001255 273.5553  86.5155 15.27588113 86875","mean_motion":15.27588113,"eccentricity":0.0001255,"inclination_deg":42.9995,"raan_deg":213.2788,"arg_perigee_deg":273.5553,"mean_anomaly_deg":86.5155,"bstar":0.00053418,"rev_number":8687,"period_min":94.266248064212,"perigee_km":482.16372710027,"apogee_km":483.8858787128,"semimajor_km":6861.1618029065,"source":"CELESTRAK","updated_at":"2026-05-25T13:38:19.485005Z"}}}